Location: St. Louis
(38.6270°N, 90.1994°W)
Time: 21:26:00
(UTC-05:00)

SEEDS - Visible Passes

Search period start: 17 August 2022 00:00
Search period end: 27 August 2022 00:00
Orbit: 580 x 597 km, 97.6° (Epoch: 17 August)

Date Brightness Start Highest point End Pass type
(mag) Time Alt. Az. Time Alt. Az. Time Alt. Az.
17 Aug ? 04:31:44 10° NE 04:35:23 28° E 04:39:01 10° SSE visible
18 Aug ? 04:39:11 10° NNE 04:43:03 35° E 04:46:53 10° SSE visible
19 Aug ? 04:46:41 10° NNE 04:50:43 43° E 04:54:43 10° S visible
20 Aug ? 04:54:14 10° NNE 04:58:21 53° E 05:02:28 10° S visible
21 Aug ? 05:01:48 10° NNE 05:06:00 67° ESE 05:10:10 10° S visible
22 Aug ? 05:09:24 10° NNE 05:13:37 83° ESE 05:17:49 10° S visible
23 Aug ? 05:17:00 10° N 05:21:14 80° WNW 05:25:26 10° SSW visible
24 Aug ? 05:24:39 10° N 05:28:50 65° WNW 05:32:59 10° SSW visible
25 Aug ? 03:59:05 10° ENE 04:00:38 12° E 04:02:10 10° ESE visible
25 Aug ? 05:32:19 10° N 05:36:25 52° WNW 05:40:30 10° SSW visible
26 Aug ? 04:05:58 10° ENE 04:08:19 14° E 04:10:39 10° SE visible
26 Aug ? 05:40:01 10° N 05:44:00 42° WNW 05:47:57 10° SW visible
